Home   Weather   33°38'N, 112°06'W   Past weeks
Flag for USA

Past Weather in 33°38'N, 112°06'W, USA — Yesterday and Last 2 Weeks

Now
86 °F

Clear.


Feels Like: 83 °F
Forecast: 103 / 75 °F
Wind: 3 mph from Southwest

Location: Phoenix Sky Harbor International Airport

Current Time: Jun 25, 2019 at 1:11:49 am

Latest Report: Jun 24, 2019 at 11:51 pm


Visibility: 10 mi

Pressure: 29.66 "Hg

Humidity: 15%

Dew Point: 33 °F

Location of 33°38'N, 112°06'WLocation

Past Weather in 33°38'N, 112°06'W — Graph

°F

33°38'N, 112°06'W Temperature Yesterday

Maximum temperature yesterday: 102 °F (at 1:51 pm)
Minimum temperature yesterday: 75 °F (at 4:51 am)
Average temperature yesterday: 90 °F

High & Low Weather Summary for the Past Weeks

 TemperatureHumidityPressure
High109 °F (Jun 12, 2:51 pm)39% (Jun 23, 3:51 am)29.95 "Hg (Jun 23, 3:51 am)
Low75 °F (Jun 24, 4:51 am)4% (Jun 12, 3:51 pm)29.57 "Hg (Jun 21, 5:51 pm)
Average92 °F14%29.73 "Hg
* Reported Jun 9 11:51 pm — Jun 24 11:51 pm, 33°38'N, 112°06'W. Weather by CustomWeather, © 2019

Note: Actual official high and low records may vary slightly from our data, if they occured in-between our weather recording intervals... More about our weather records

Advertising

33°38'N, 112°06'W Weather History for the Previous 24 Hours

Scroll right to see more
 ConditionsComfort  
Time TempWeatherWind HumidityBarometerVisibility
11:51 pm
Mon, Jun 24
86 °FClear.3 mph15%29.66 "Hg10 mi
10:51 pm88 °FClear.7 mph13%29.66 "Hg10 mi
9:51 pm92 °FClear.No wind10%29.66 "Hg10 mi
8:51 pm98 °FClear.6 mph6%29.65 "Hg10 mi
7:51 pm99 °FPassing clouds.7 mph6%29.65 "Hg10 mi
6:51 pm100 °FPassing clouds.N/A5%29.65 "Hg10 mi
5:51 pm101 °FPassing clouds.13 mph5%29.64 "Hg10 mi
4:51 pm101 °FPassing clouds.No wind6%29.66 "Hg10 mi
3:51 pm102 °FPassing clouds.6 mph6%29.67 "Hg10 mi
2:51 pm101 °FPassing clouds.7 mph6%29.69 "Hg10 mi
1:51 pm102 °FScattered clouds.5 mph5%29.71 "Hg10 mi
12:51 pm99 °FPassing clouds.5 mph7%29.74 "Hg10 mi
11:51 am96 °FPassing clouds.6 mph9%29.76 "Hg10 mi
10:51 am93 °FPassing clouds.3 mph12%29.78 "Hg10 mi
9:51 am88 °FPassing clouds.6 mph16%29.79 "Hg10 mi
8:51 am84 °FPassing clouds.7 mph18%29.79 "Hg10 mi
7:51 am81 °FPassing clouds.7 mph20%29.78 "Hg10 mi
6:51 am78 °FPassing clouds.10 mph21%29.77 "Hg10 mi
5:51 am76 °FPassing clouds.7 mph22%29.76 "Hg10 mi
4:51 am75 °FPassing clouds.6 mph23%29.74 "Hg10 mi
3:51 am76 °FClear.6 mph22%29.73 "Hg10 mi
2:51 am79 °FPassing clouds.6 mph17%29.73 "Hg10 mi
1:51 am81 °FClear.6 mph21%29.72 "Hg10 mi
Weather by CustomWeather, © 2019

See weather overview